| time (UTC) | temp F | wind direction | speed knots | gust knots | rain 1hr in | rain 24hr in | rain mn in | humidity % | barometer mb |
| 20260510190557 | 63 | 28 | 2.6 | 5.2 | 0.00 | 0.00 | 0.00 | 52 | 1019.1 |
| 20260510190056 | 63 | 43 | 0.0 | 5.2 | 0.00 | 0.00 | 0.00 | 51 | 1019.2 |
| 20260510185555 | 63 | 329 | 3.5 | 7.0 | 0.00 | 0.00 | 0.00 | 51 | 1019.4 |
| 20260510185056 | 63 | 42 | 0.0 | 7.8 | 0.00 | 0.00 | 0.00 | 51 | 1019.5 |
| 20260510184556 | 63 | 12 | 0.0 | 7.8 | 0.00 | 0.00 | 0.00 | 51 | 1019.7 |
| 20260510184056 | 63 | 26 | 0.0 | 5.2 | 0.00 | 0.00 | 0.00 | 52 | 1019.8 |
| 20260510183555 | 63 | 344 | 0.0 | 5.2 | 0.00 | 0.00 | 0.00 | 51 | 1019.7 |
| 20260510183056 | 63 | 346 | 1.7 | 5.2 | 0.00 | 0.00 | 0.00 | 52 | 1019.6 |
| 20260510182555 | 63 | 315 | 0.9 | 5.2 | 0.00 | 0.00 | 0.00 | 52 | 1019.4 |
| 20260510182056 | 62 | 304 | 4.3 | 7.0 | 0.00 | 0.00 | 0.00 | 52 | 1019.1 |
| 20260510181556 | 62 | 320 | 3.5 | 8.7 | 0.00 | 0.00 | 0.00 | 52 | 1018.8 |
| 20260510181055 | 62 | 17 | 1.7 | 8.7 | 0.00 | 0.00 | 0.00 | 53 | 1019.0 |
| 20260510180555 | 62 | 311 | 1.7 | 8.7 | 0.00 | 0.00 | 0.00 | 53 | 1018.9 |
| 20260510180056 | 62 | 341 | 4.3 | 8.7 | 0.00 | 0.00 | 0.00 | 52 | 1018.9 |
| 20260510175555 | 62 | 5 | 0.0 | 7.0 | 0.00 | 0.00 | 0.00 | 53 | 1018.8 |
| 20260510174556 | 63 | 82 | 0.9 | 9.6 | 0.00 | 0.00 | 0.00 | 52 | 1018.7 |
| 20260510174055 | 63 | 349 | 1.7 | 8.7 | 0.00 | 0.00 | 0.00 | 52 | 1019.2 |
| 20260510173556 | 63 | 355 | 4.3 | 10.4 | 0.00 | 0.00 | 0.00 | 52 | 1019.5 |
| 20260510173056 | 63 | 302 | 7.8 | 10.4 | 0.00 | 0.00 | 0.00 | 51 | 1019.7 |
| 20260510172556 | 64 | 321 | 2.6 | 10.4 | 0.00 | 0.00 | 0.00 | 50 | 1019.8 |
| 20260510171555 | 64 | 346 | 5.2 | 9.6 | 0.00 | 0.00 | 0.00 | 50 | 1019.6 |
| 20260510170556 | 64 | 347 | 3.5 | 7.8 | 0.00 | 0.00 | 0.00 | 50 | 1019.4 |
| 20260510170056 | 65 | 345 | 3.5 | 8.7 | 0.00 | 0.00 | 0.00 | 50 | 1019.2 |
| 20260510165055 | 65 | 355 | 7.8 | 12.2 | 0.00 | 0.00 | 0.00 | 50 | 1019.0 |
| 20260510164556 | 65 | 15 | 7.0 | 9.6 | 0.00 | 0.00 | 0.00 | 49 | 1018.7 |
| 20260510163555 | 65 | 348 | 8.7 | 8.7 | 0.00 | 0.00 | 0.00 | 50 | 1018.2 |
| 20260510163057 | 65 | 351 | 2.6 | 4.3 | 0.00 | 0.00 | 0.00 | 50 | 1018.2 |
| 20260510162556 | 64 | 5 | 0.9 | 3.5 | 0.00 | 0.00 | 0.00 | 50 | 1018.1 |
| 20260510161556 | 64 | 19 | 0.0 | 3.5 | 0.00 | 0.00 | 0.00 | 51 | 1017.9 |
| 20260510160555 | 64 | 341 | 0.0 | 3.5 | 0.00 | 0.00 | 0.00 | 51 | 1017.8 |
| 20260510160056 | 63 | 342 | 0.9 | 4.3 | 0.00 | 0.00 | 0.00 | 51 | 1017.5 |
| 20260510155555 | 63 | 51 | 2.6 | 7.8 | 0.00 | 0.00 | 0.00 | 51 | 1017.4 |
| 20260510155055 | 64 | 326 | 2.6 | 7.8 | 0.00 | 0.00 | 0.00 | 50 | 1017.3 |
| 20260510154556 | 64 | 329 | 2.6 | 7.8 | 0.00 | 0.00 | 0.00 | 50 | 1017.1 |
| 20260510154056 | 64 | 45 | 0.0 | 7.8 | 0.00 | 0.00 | 0.00 | 50 | 1017.0 |
| 20260510153555 | 64 | 28 | 3.5 | 8.7 | 0.00 | 0.00 | 0.00 | 49 | 1017.1 |
| 20260510153056 | 64 | 5 | 5.2 | 8.7 | 0.00 | 0.00 | 0.00 | 49 | 1016.9 |
| 20260510152556 | 64 | 360 | 0.0 | 5.2 | 0.00 | 0.00 | 0.00 | 49 | 1016.7 |
| 20260510152057 | 64 | 5 | 0.0 | 5.2 | 0.00 | 0.00 | 0.00 | 49 | 1016.8 |
| 20260510151557 | 64 | 355 | 2.6 | 4.3 | 0.00 | 0.00 | 0.00 | 49 | 1016.6 |
| 20260510150556 | 64 | 16 | 1.7 | 4.3 | 0.00 | 0.00 | 0.00 | 49 | 1016.5 |
| 20260510150057 | 64 | 18 | 1.7 | 4.3 | 0.00 | 0.00 | 0.00 | 49 | 1016.4 |
| 20260510145555 | 64 | 5 | 2.6 | 4.3 | 0.00 | 0.00 | 0.00 | 49 | 1016.2 |
| 20260510145056 | 64 | 18 | 0.9 | 5.2 | 0.00 | 0.00 | 0.00 | 49 | 1016.2 |
| 20260510144556 | 64 | 315 | 0.9 | 5.2 | 0.00 | 0.00 | 0.00 | 49 | 1016.2 |
| 20260510144055 | 64 | 329 | 0.0 | 5.2 | 0.00 | 0.00 | 0.00 | 49 | 1016.1 |
| 20260510143056 | 64 | 345 | 2.6 | 3.5 | 0.00 | 0.00 | 0.00 | 50 | 1015.9 |
| 20260510142556 | 64 | 325 | 0.0 | 1.7 | 0.00 | 0.00 | 0.00 | 50 | 1015.9 |
| 20260510142055 | 64 | 325 | 0.0 | 3.5 | 0.00 | 0.00 | 0.00 | 51 | 1016.0 |
| 20260510141056 | 63 | 342 | 0.9 | 3.5 | 0.00 | 0.00 | 0.00 | 52 | 1016.6 |
| 20260510140555 | 63 | 10 | 2.6 | 2.6 | 0.00 | 0.00 | 0.00 | 53 | 1016.5 |
| 20260510140056 | 63 | 9 | 0.0 | 1.7 | 0.00 | 0.00 | 0.00 | 53 | 1016.2 |
| 20260510135557 | 63 | 9 | 0.0 | 2.6 | 0.00 | 0.00 | 0.00 | 54 | 1016.2 |
| 20260510135055 | 63 | 9 | 0.0 | 2.6 | 0.00 | 0.00 | 0.00 | 54 | 1016.5 |
| 20260510134556 | 63 | 9 | 0.0 | 0.0 | 0.00 | 0.00 | 0.00 | 54 | 1016.3 |
| 20260510134057 | 63 | 9 | 0.0 | 0.0 | 0.00 | 0.00 | 0.00 | 53 | 1016.4 |
| 20260510133056 | 63 | 9 | 0.0 | 0.0 | 0.00 | 0.00 | 0.00 | 53 | 1016.4 |
| 20260510132555 | 62 | 9 | 0.0 | 0.0 | 0.00 | 0.00 | 0.00 | 53 | 1016.4 |
| 20260510131055 | 62 | 9 | 0.0 | 1.7 | 0.00 | 0.00 | 0.00 | 53 | 1016.5 |
| 20260510130556 | 62 | 9 | 0.0 | 1.7 | 0.00 | 0.00 | 0.00 | 53 | 1016.6 |
| 20260510130056 | 62 | 9 | 0.0 | 0.0 | 0.00 | 0.00 | 0.00 | 53 | 1016.6 |
| 20260510125555 | 62 | 9 | 0.0 | 0.0 | 0.00 | 0.00 | 0.00 | 53 | 1016.4 |
| 20260510125055 | 62 | 9 | 0.0 | 0.0 | 0.00 | 0.00 | 0.00 | 53 | 1016.0 |
| 20260510124556 | 62 | 9 | 0.0 | 0.0 | 0.00 | 0.00 | 0.00 | 53 | 1015.7 |
| 20260510124055 | 62 | 5 | 0.0 | 0.0 | 0.00 | 0.00 | 0.00 | 53 | 1015.6 |
| 20260510123555 | 62 | 5 | 0.0 | 0.0 | 0.00 | 0.00 | 0.00 | 53 | 1015.5 |
| 20260510123057 | 62 | 5 | 0.0 | 0.0 | 0.00 | 0.00 | 0.00 | 53 | 1015.6 |
| 20260510122555 | 62 | 5 | 0.0 | 0.0 | 0.00 | 0.00 | 0.00 | 53 | 1015.2 |
| 20260510122055 | 62 | 5 | 0.0 | 0.0 | 0.00 | 0.00 | 0.00 | 53 | 1014.8 |
| 20260510121555 | 62 | 5 | 0.0 | 0.0 | 0.00 | 0.00 | 0.00 | 54 | 1014.8 |
| 20260510121055 | 62 | 5 | 0.0 | 0.0 | 0.00 | 0.00 | 0.00 | 54 | 1014.5 |
| 20260510120556 | 62 | 5 | 0.0 | 0.0 | 0.00 | 0.00 | 0.00 | 54 | 1014.4 |
| 20260510120056 | 61 | 5 | 0.0 | 0.0 | 0.00 | 0.00 | 0.00 | 55 | 1014.3 |
| 20260510114556 | 61 | 5 | 0.0 | 0.9 | 0.00 | 0.00 | 0.00 | 56 | 1014.1 |
| 20260510114056 | 61 | 5 | 0.0 | 0.9 | 0.00 | 0.00 | 0.00 | 57 | 1013.9 |
| 20260510113056 | 62 | 9 | 0.0 | 0.0 | 0.00 | 0.00 | 0.00 | 57 | 1013.5 |
| 20260510112555 | 62 | 5 | 0.0 | 0.0 | 0.00 | 0.00 | 0.00 | 57 | 1013.4 |
| 20260510112055 | 62 | 5 | 0.0 | 0.0 | 0.00 | 0.00 | 0.00 | 57 | 1013.4 |
| 20260510111556 | 62 | 5 | 0.0 | 0.0 | 0.00 | 0.00 | 0.00 | 58 | 1013.1 |
| 20260510111055 | 62 | 5 | 0.0 | 0.0 | 0.00 | 0.00 | 0.00 | 58 | 1013.1 |
| 20260510110555 | 63 | 5 | 0.0 | 0.0 | 0.00 | 0.00 | 0.00 | 58 | 1013.2 |
| 20260510105055 | 63 | 5 | 0.0 | 0.0 | 0.00 | 0.01 | 0.00 | 58 | 1012.7 |
| 20260510104556 | 63 | 5 | 0.0 | 0.0 | 0.00 | 0.01 | 0.00 | 58 | 1012.8 |
| 20260510104056 | 63 | 5 | 0.0 | 0.0 | 0.00 | 0.01 | 0.00 | 58 | 1012.8 |
| 20260510103556 | 64 | 5 | 0.0 | 0.0 | 0.00 | 0.01 | 0.00 | 57 | 1012.7 |
| 20260510101555 | 64 | 5 | 0.0 | 0.9 | 0.00 | 0.01 | 0.00 | 57 | 1012.5 |
| 20260510101056 | 64 | 5 | 0.0 | 0.9 | 0.00 | 0.01 | 0.00 | 57 | 1012.4 |
| 20260510100555 | 64 | 5 | 0.0 | 0.9 | 0.00 | 0.01 | 0.00 | 57 | 1012.4 |
| 20260510100057 | 64 | 5 | 0.0 | 0.9 | 0.00 | 0.01 | 0.00 | 57 | 1012.4 |
| 20260510095055 | 64 | 5 | 0.0 | 0.0 | 0.00 | 0.01 | 0.00 | 56 | 1012.4 |
| 20260510094556 | 64 | 5 | 0.0 | 0.0 | 0.00 | 0.01 | 0.00 | 56 | 1012.3 |
| 20260510094055 | 64 | 5 | 0.0 | 0.0 | 0.00 | 0.01 | 0.00 | 56 | 1012.2 |
| 20260510093555 | 65 | 5 | 0.0 | 0.0 | 0.00 | 0.01 | 0.00 | 56 | 1012.3 |
| 20260510092055 | 65 | 5 | 0.0 | 0.0 | 0.00 | 0.01 | 0.00 | 55 | 1012.3 |
| 20260510091555 | 65 | 5 | 0.0 | 0.0 | 0.00 | 0.01 | 0.00 | 55 | 1012.3 |
| 20260510091055 | 66 | 5 | 0.0 | 0.0 | 0.00 | 0.01 | 0.00 | 54 | 1012.1 |
| 20260510085556 | 66 | 5 | 0.0 | 0.0 | 0.00 | 0.01 | 0.00 | 53 | 1011.6 |
| 20260510085055 | 67 | 5 | 0.0 | 1.7 | 0.00 | 0.01 | 0.00 | 53 | 1011.4 |
| 20260510084555 | 67 | 5 | 0.9 | 2.6 | 0.00 | 0.01 | 0.00 | 52 | 1011.4 |
| 20260510083557 | 67 | 331 | 1.7 | 2.6 | 0.00 | 0.01 | 0.00 | 52 | 1011.1 |
| 20260510083056 | 67 | 330 | 0.0 | 0.9 | 0.00 | 0.01 | 0.00 | 52 | 1011.0 |
| 20260510082557 | 68 | 330 | 0.0 | 1.7 | 0.00 | 0.01 | 0.00 | 51 | 1010.6 |
| 20260510082056 | 68 | 330 | 0.0 | 3.5 | 0.00 | 0.01 | 0.00 | 51 | 1010.7 |
| 20260510081555 | 68 | 329 | 0.0 | 4.3 | 0.00 | 0.01 | 0.00 | 51 | 1010.4 |
| 20260510081056 | 68 | 42 | 0.0 | 4.3 | 0.00 | 0.01 | 0.00 | 51 | 1010.3 |
| 20260510080556 | 68 | 351 | 4.3 | 4.3 | 0.00 | 0.01 | 0.00 | 51 | 1010.5 |
| 20260510080055 | 68 | 5 | 0.0 | 3.5 | 0.00 | 0.01 | 0.00 | 51 | 1010.3 |
| 20260510075055 | 68 | 143 | 0.0 | 7.8 | 0.00 | 0.01 | 0.00 | 51 | 1008.9 |
| 20260510074556 | 68 | 150 | 2.6 | 10.4 | 0.00 | 0.01 | 0.00 | 51 | 1008.4 |
| 20260510074055 | 67 | 170 | 5.2 | 12.2 | 0.00 | 0.01 | 0.00 | 51 | 1008.0 |
| 20260510073555 | 68 | 132 | 3.5 | 12.2 | 0.00 | 0.01 | 0.00 | 52 | 1007.7 |
| 20260510073055 | 68 | 169 | 6.1 | 12.2 | 0.00 | 0.01 | 0.00 | 51 | 1009.4 |
| 20260510071555 | 69 | 169 | 0.9 | 9.6 | 0.00 | 0.01 | 0.00 | 50 | 1011.5 |
| 20260510070555 | 69 | 221 | 0.9 | 12.2 | 0.00 | 0.01 | 0.00 | 49 | 1011.0 |
| 20260510070055 | 69 | 156 | 8.7 | 12.2 | 0.00 | 0.01 | 0.00 | 48 | 1010.7 |
| 20260510065556 | 70 | 167 | 7.0 | 12.2 | 0.00 | 0.01 | 0.00 | 47 | 1011.0 |
| 20260510065055 | 70 | 153 | 4.3 | 7.8 | 0.00 | 0.01 | 0.00 | 47 | 1011.7 |
| 20260510064555 | 70 | 195 | 0.9 | 11.3 | 0.00 | 0.01 | 0.00 | 47 | 1012.8 |
| 20260510064055 | 69 | 148 | 1.7 | 11.3 | 0.00 | 0.01 | 0.00 | 49 | 1013.4 |
| 20260510062555 | 70 | 296 | 0.0 | 3.5 | 0.00 | 0.01 | 0.00 | 50 | 1012.7 |
| 20260510062055 | 70 | 313 | 1.7 | 4.3 | 0.00 | 0.01 | 0.00 | 50 | 1012.6 |
| 20260510061556 | 69 | 350 | 2.6 | 4.3 | 0.00 | 0.01 | 0.00 | 49 | 1012.4 |
| 20260510061055 | 69 | 355 | 2.6 | 4.3 | 0.00 | 0.01 | 0.00 | 50 | 1012.4 |
| 20260510060555 | 69 | 23 | 0.0 | 1.7 | 0.00 | 0.01 | 0.00 | 50 | 1012.3 |
| 20260510060055 | 69 | 23 | 0.9 | 1.7 | 0.00 | 0.01 | 0.00 | 50 | 1012.6 |
| 20260510055556 | 70 | 23 | 0.0 | 0.0 | 0.00 | 0.01 | 0.00 | 50 | 1012.9 |
| 20260510055055 | 70 | 23 | 0.0 | 0.0 | 0.00 | 0.01 | 0.00 | 49 | 1013.2 |
| 20260510054555 | 70 | 23 | 0.0 | 0.9 | 0.00 | 0.01 | 0.00 | 49 | 1013.3 |
| 20260510054055 | 70 | 23 | 0.0 | 0.9 | 0.00 | 0.01 | 0.00 | 49 | 1013.4 |
| 20260510052555 | 70 | 19 | 0.0 | 3.5 | 0.00 | 0.01 | 0.00 | 48 | 1013.4 |
| 20260510052055 | 70 | 32 | 1.7 | 3.5 | 0.00 | 0.01 | 0.00 | 49 | 1013.4 |
| 20260510051555 | 70 | 17 | 0.9 | 3.5 | 0.00 | 0.01 | 0.00 | 51 | 1013.3 |
| 20260510051055 | 69 | 46 | 0.9 | 3.5 | 0.00 | 0.01 | 0.00 | 50 | 1013.1 |
| 20260510050556 | 69 | 360 | 0.0 | 1.7 | 0.00 | 0.01 | 0.00 | 51 | 1013.0 |
| 20260510050059 | 69 | 162 | 0.0 | 0.0 | 0.00 | 0.01 | 0.00 | 51 | 1012.8 |
| 20260510045555 | 69 | 162 | 0.0 | 0.0 | 0.00 | 0.01 | 0.01 | 51 | 1012.6 |
| 20260510045054 | 69 | 162 | 0.0 | 0.0 | 0.00 | 0.01 | 0.01 | 51 | 1012.2 |
| 20260510044556 | 69 | 162 | 0.0 | 0.0 | 0.00 | 0.01 | 0.01 | 51 | 1012.2 |
| 20260510044055 | 68 | 163 | 0.0 | 0.9 | 0.00 | 0.01 | 0.01 | 51 | 1012.2 |
| 20260510043554 | 68 | 163 | 0.0 | 0.9 | 0.00 | 0.01 | 0.01 | 51 | 1012.1 |
| 20260510043055 | 68 | 163 | 0.0 | 0.9 | 0.00 | 0.01 | 0.01 | 51 | 1012.0 |
| 20260510042554 | 68 | 163 | 0.0 | 0.0 | 0.00 | 0.01 | 0.01 | 51 | 1011.8 |
| 20260510041555 | 68 | 163 | 0.0 | 0.0 | 0.00 | 0.01 | 0.01 | 51 | 1011.6 |
| 20260510041054 | 68 | 163 | 0.0 | 0.0 | 0.00 | 0.01 | 0.01 | 51 | 1011.6 |
| 20260510040554 | 68 | 163 | 0.0 | 0.0 | 0.00 | 0.01 | 0.01 | 50 | 1011.5 |
| 20260510040056 | 68 | 163 | 0.0 | 0.0 | 0.00 | 0.01 | 0.01 | 50 | 1011.4 |
| 20260510035554 | 68 | 163 | 0.0 | 0.0 | 0.00 | 0.01 | 0.01 | 51 | 1011.4 |
| 20260510035054 | 68 | 163 | 0.0 | 0.0 | 0.00 | 0.01 | 0.01 | 49 | 1011.4 |
| 20260510034555 | 68 | 163 | 0.0 | 0.0 | 0.00 | 0.01 | 0.01 | 50 | 1011.3 |
| 20260510034055 | 68 | 163 | 0.0 | 0.0 | 0.00 | 0.01 | 0.01 | 49 | 1011.3 |
| 20260510033555 | 68 | 163 | 0.0 | 0.0 | 0.00 | 0.01 | 0.01 | 50 | 1011.3 |
| 20260510033056 | 68 | 163 | 0.0 | 0.0 | 0.00 | 0.01 | 0.01 | 50 | 1011.4 |
| 20260510032554 | 68 | 163 | 0.0 | 0.0 | 0.00 | 0.01 | 0.01 | 49 | 1011.5 |
| 20260510031555 | 68 | 163 | 0.0 | 0.0 | 0.00 | 0.01 | 0.01 | 48 | 1011.4 |
| 20260510031054 | 68 | 163 | 0.0 | 0.0 | 0.00 | 0.01 | 0.01 | 48 | 1011.4 |
| 20260510030556 | 69 | 163 | 0.0 | 0.0 | 0.00 | 0.01 | 0.01 | 48 | 1011.4 |
| 20260510030056 | 69 | 163 | 0.0 | 0.0 | 0.00 | 0.01 | 0.01 | 47 | 1011.4 |
| 20260510025555 | 69 | 163 | 0.0 | 0.0 | 0.00 | 0.01 | 0.01 | 47 | 1011.4 |
| 20260510025055 | 69 | 163 | 0.0 | 0.0 | 0.00 | 0.01 | 0.01 | 47 | 1011.3 |
| 20260510024556 | 69 | 163 | 0.0 | 0.0 | 0.00 | 0.01 | 0.01 | 47 | 1011.1 |
| 20260510024055 | 69 | 163 | 0.0 | 0.0 | 0.00 | 0.01 | 0.01 | 46 | 1010.9 |
| 20260510023554 | 70 | 163 | 0.0 | 0.0 | 0.00 | 0.01 | 0.01 | 45 | 1010.8 |
| 20260510023056 | 70 | 163 | 0.0 | 0.0 | 0.00 | 0.01 | 0.01 | 45 | 1010.3 |
| 20260510022554 | 70 | 163 | 0.0 | 0.0 | 0.00 | 0.01 | 0.01 | 44 | 1010.2 |
| 20260510022055 | 71 | 163 | 0.0 | 0.0 | 0.00 | 0.01 | 0.01 | 44 | 1010.1 |
| 20260510021555 | 71 | 163 | 0.0 | 0.0 | 0.00 | 0.01 | 0.01 | 43 | 1009.9 |
| 20260510021054 | 71 | 163 | 0.0 | 0.0 | 0.00 | 0.01 | 0.01 | 43 | 1009.7 |
| 20260510020554 | 72 | 163 | 0.0 | 0.0 | 0.00 | 0.01 | 0.01 | 42 | 1009.7 |
| 20260510015055 | 73 | 163 | 0.0 | 0.0 | 0.00 | 0.01 | 0.01 | 39 | 1009.4 |
| 20260510014555 | 74 | 163 | 0.0 | 0.0 | 0.00 | 0.01 | 0.01 | 38 | 1009.3 |
| 20260510013554 | 75 | 163 | 0.0 | 0.0 | 0.00 | 0.01 | 0.01 | 37 | 1009.3 |
| 20260510013056 | 75 | 163 | 0.0 | 0.0 | 0.00 | 0.01 | 0.01 | 37 | 1009.2 |
| 20260510011555 | 76 | 163 | 0.0 | 0.9 | 0.00 | 0.01 | 0.01 | 34 | 1009.0 |
| 20260510011055 | 77 | 163 | 0.0 | 0.9 | 0.00 | 0.01 | 0.01 | 33 | 1009.0 |
| 20260510010554 | 77 | 163 | 0.9 | 0.9 | 0.00 | 0.01 | 0.01 | 32 | 1009.0 |
| 20260510005554 | 78 | 163 | 0.0 | 1.7 | 0.00 | 0.18 | 0.01 | 32 | 1008.9 |
| 20260510005055 | 78 | 163 | 0.0 | 1.7 | 0.00 | 0.18 | 0.01 | 31 | 1008.9 |
| 20260510004611 | 78 | 163 | 0.9 | 1.7 | 0.00 | 0.18 | 0.01 | 31 | 1008.8 |
| 20260510003055 | 79 | 169 | 0.0 | 3.5 | 0.00 | 0.18 | 0.01 | 33 | 1008.7 |
| 20260510002555 | 79 | 184 | 2.6 | 5.2 | 0.00 | 0.18 | 0.01 | 33 | 1008.6 |
| 20260510002055 | 79 | 174 | 0.9 | 6.1 | 0.00 | 0.18 | 0.01 | 32 | 1008.6 |
| 20260510001555 | 80 | 182 | 1.7 | 4.3 | 0.00 | 0.18 | 0.01 | 33 | 1008.6 |
| 20260510001055 | 80 | 176 | 0.9 | 4.3 | 0.00 | 0.18 | 0.01 | 33 | 1008.6 |
| 20260510000556 | 80 | 167 | 3.5 | 8.7 | 0.00 | 0.18 | 0.01 | 33 | 1008.6 |
| 20260510000055 | 80 | 175 | 0.9 | 8.7 | 0.00 | 0.18 | 0.01 | 32 | 1008.7 |
| 20260509235555 | 80 | 178 | 0.9 | 5.2 | 0.00 | 0.44 | 0.01 | 31 | 1008.6 |
| 20260509235056 | 80 | 161 | 0.9 | 5.2 | 0.00 | 0.44 | 0.01 | 31 | 1008.8 |
| 20260509233555 | 81 | 174 | 0.9 | 7.0 | 0.00 | 0.44 | 0.01 | 28 | 1008.8 |
| 20260509233055 | 81 | 182 | 1.7 | 7.0 | 0.00 | 0.44 | 0.01 | 27 | 1008.8 |
| 20260509232555 | 81 | 159 | 3.5 | 7.0 | 0.00 | 0.44 | 0.01 | 26 | 1008.8 |
| 20260509232055 | 81 | 178 | 1.7 | 8.7 | 0.00 | 0.44 | 0.01 | 25 | 1008.8 |
| 20260509231555 | 81 | 175 | 5.2 | 8.7 | 0.00 | 0.44 | 0.01 | 25 | 1008.8 |
| 20260509231055 | 81 | 164 | 4.3 | 5.2 | 0.00 | 0.44 | 0.01 | 24 | 1008.9 |
| 20260509230055 | 81 | 175 | 0.0 | 5.2 | 0.00 | 0.44 | 0.01 | 23 | 1009.0 |
| 20260509225555 | 82 | 167 | 2.6 | 5.2 | 0.00 | 0.44 | 0.01 | 22 | 1008.9 |
| 20260509225055 | 82 | 167 | 0.0 | 7.0 | 0.00 | 0.44 | 0.01 | 21 | 1009.0 |
| 20260509224056 | 82 | 181 | 1.7 | 7.0 | 0.00 | 0.44 | 0.01 | 24 | 1009.0 |
| 20260509223555 | 82 | 186 | 3.5 | 9.6 | 0.00 | 0.44 | 0.01 | 22 | 1009.0 |
| 20260509223055 | 82 | 170 | 9.6 | 9.6 | 0.00 | 0.44 | 0.01 | 21 | 1009.0 |
| 20260509222055 | 83 | 168 | 3.5 | 7.8 | 0.00 | 0.44 | 0.01 | 24 | 1009.0 |
| 20260509221555 | 83 | 182 | 6.1 | 7.8 | 0.00 | 0.44 | 0.01 | 23 | 1009.1 |
| 20260509220555 | 84 | 134 | 2.6 | 6.1 | 0.00 | 0.44 | 0.01 | 24 | 1009.2 |
| 20260509220055 | 83 | 180 | 0.9 | 7.8 | 0.00 | 0.44 | 0.01 | 26 | 1009.2 |
| 20260509215556 | 83 | 189 | 0.9 | 7.8 | 0.00 | 0.44 | 0.01 | 26 | 1009.2 |
| 20260509215055 | 83 | 166 | 3.5 | 5.2 | 0.00 | 0.44 | 0.01 | 23 | 1009.2 |
| 20260509214055 | 83 | 173 | 2.6 | 8.7 | 0.00 | 0.44 | 0.01 | 23 | 1009.2 |
| 20260509213554 | 82 | 150 | 2.6 | 8.7 | 0.00 | 0.44 | 0.01 | 23 | 1009.3 |
| 20260509212554 | 83 | 171 | 5.2 | 8.7 | 0.00 | 0.44 | 0.01 | 28 | 1009.3 |
| 20260509212055 | 82 | 175 | 0.0 | 7.0 | 0.00 | 0.44 | 0.01 | 30 | 1009.4 |
| 20260509211556 | 83 | 176 | 3.5 | 7.0 | 0.00 | 0.44 | 0.01 | 28 | 1009.6 |
| 20260509211055 | 83 | 167 | 5.2 | 6.1 | 0.00 | 0.44 | 0.01 | 29 | 1009.5 |
| 20260509210555 | 83 | 181 | 2.6 | 8.7 | 0.00 | 0.44 | 0.01 | 26 | 1009.7 |
| 20260509210055 | 83 | 161 | 0.9 | 8.7 | 0.00 | 0.44 | 0.01 | 24 | 1009.8 |
| 20260509205555 | 83 | 170 | 0.9 | 6.1 | 0.00 | 0.44 | 0.01 | 22 | 1009.8 |
| 20260509204556 | 84 | 182 | 0.0 | 3.5 | 0.00 | 0.44 | 0.01 | 20 | 1009.9 |
| 20260509204055 | 84 | 166 | 0.9 | 5.2 | 0.00 | 0.44 | 0.01 | 20 | 1009.9 |
| 20260509203555 | 83 | 177 | 0.0 | 7.8 | 0.00 | 0.44 | 0.01 | 17 | 1009.9 |
| 20260509203055 | 84 | 168 | 0.9 | 7.0 | 0.00 | 0.44 | 0.01 | 19 | 1010.0 |
| 20260509202555 | 84 | 168 | 0.0 | 6.1 | 0.00 | 0.44 | 0.01 | 26 | 1009.9 |
| 20260509202054 | 84 | 170 | 1.7 | 5.2 | 0.00 | 0.44 | 0.01 | 24 | 1010.0 |
| 20260509201556 | 83 | 160 | 0.0 | 3.5 | 0.00 | 0.44 | 0.01 | 25 | 1010.1 |
| 20260509201054 | 83 | 5 | 0.0 | 3.5 | 0.00 | 0.44 | 0.01 | 21 | 1010.1 |
| 20260509200555 | 83 | 148 | 0.0 | 6.1 | 0.00 | 0.44 | 0.01 | 24 | 1010.1 |
| 20260509200055 | 84 | 182 | 0.0 | 6.1 | 0.00 | 0.44 | 0.01 | 24 | 1010.2 |
| 20260509195556 | 84 | 171 | 0.9 | 4.3 | 0.00 | 0.44 | 0.01 | 24 | 1010.3 |
| 20260509195055 | 84 | 184 | 1.7 | 5.2 | 0.00 | 0.44 | 0.01 | 23 | 1010.3 |
| 20260509194555 | 83 | 157 | 0.0 | 5.2 | 0.00 | 0.44 | 0.01 | 22 | 1010.3 |
| 20260509194054 | 83 | 165 | 0.9 | 5.2 | 0.00 | 0.44 | 0.01 | 22 | 1010.4 |
| 20260509193055 | 83 | 176 | 2.6 | 5.2 | 0.00 | 0.44 | 0.01 | 20 | 1010.6 |
| 20260509192555 | 82 | 169 | 0.0 | 5.2 | 0.00 | 0.44 | 0.01 | 18 | 1010.6 |
| 20260509191555 | 82 | 178 | 0.0 | 5.2 | 0.00 | 0.44 | 0.01 | 26 | 1010.7 |
| 20260509191055 | 82 | 177 | 1.7 | 6.1 | 0.00 | 0.44 | 0.01 | 25 | 1010.6 |